Location: Góry Miechowskie
(50.3599°N, 20.1803°E)
Time: 20:30:19
(UTC+00:00)

Cosmos 2219 - Pass Details

Date: 24 September 2024
Orbit: 831 x 860 km, 71.1° (Epoch: 13 October)

Event Time Altitude Azimuth Distance (km) Brightness Sun altitude
Exits shadow 02:47:00 - 193° (SSW) 2,789 5.6 -16.8°
Reaches altitude 10° 02:47:51 10° 192° (SSW) 2,468 5.3 -16.7°
Maximum altitude 02:53:26 61° 113° (ESE) 964 3.7 -15.8°
Drops below altitude 10° 02:59:05 10° 35° (NE) 2,502 6.4 -15.0°
Sets 03:01:35 0° 32° (NNE) 3,445 7.2 -14.6°
